Wind_Speed
24 23 25 26 25 26 25 20 13 10 10 9 11 13 16 19 22 23 24 23 22 21 20 22 20 18 16 15 15 18 22 24 25 29 32 31 30 29 25 21 17 14 14
31 33 32 30 27 24 20 15 12 11 10 11 13 16 18 22 23 20 20 20 20 21 20 18 15 14 14 16 20 21 19 21 24 29 27 29 28 28 28 23 19 16 16
35 33 29 25 21 20 16 13 12 10 10 13 15 19 21 19 18 18 18 20 18 19 16 12 12 13 17 18 18 20 21 20 22 27 31 29 30 29 28 28 26 21 19
32 26 23 20 17 14 12 10 9 10 13 16 20 19 15 14 17 20 18 14 17 14 12 12 13 14 16 15 18 18 20 25 28 32 34 33 31 30 28 27 30 25 25
23 21 18 16 14 12 11 9 10 13 17 18 16 14 15 16 15 16 15 18 15 13 11 12 11 14 11 13 17 20 24 30 34 34 34 33 33 32 29 27 26 28 28
27 25 19 16 14 11 9 9 12 15 17 17 17 16 13 11 12 14 17 18 17 13 14 16 15 11 14 16 16 20 25 31 33 33 34 33 32 29 27 27 28 28 29
24 21 18 13 9 7 8 11 14 16 17 16 12 9 9 11 12 14 15 20 18 14 15 16 16 11 12 16 21 24 24 26 29 30 31 31 31 27 26 27 28 30 29
19 15 11 8 6 6 9 11 12 11 9 7 7 6 9 10 10 13 18 22 19 16 14 17 16 9 11 19 24 25 28 31 34 36 34 30 27 24 23 25 27 29 28
13 9 6 3 3 5 8 9 9 8 10 8 10 9 5 7 12 17 19 22 20 17 14 17 13 11 12 20 24 28 32 35 37 32 27 25 23 20 19 21 23 22 23
8 3 1 4 5 6 7 8 8 8 7 6 1 5 8 11 15 18 22 22 21 17 15 15 11 10 14 19 22 27 34 38 36 29 28 24 21 20 18 16 16 18 18
4 2 1 2 4 5 6 7 6 5 5 4 5 7 12 15 17 19 19 20 21 19 18 17 12 10 14 18 20 26 30 34 31 27 26 26 24 24 22 15 13 15 15
4 4 6 6 6 5 5 5 6 7 7 7 8 9 10 12 15 16 15 16 17 18 17 16 14 12 15 19 20 25 31 33 32 29 30 28 26 24 19 16 15 13 15
5 6 8 7 6 5 5 8 10 13 12 12 13 14 14 13 13 13 14 14 14 15 13 14 13 13 17 18 21 24 31 33 38 35 32 31 28 23 17 13 12 11 12
6 7 9 8 9 9 9 10 12 15 16 17 18 19 18 20 20 20 18 18 18 17 15 15 16 16 17 19 21 24 30 35 38 33 29 27 23 17 12 10 11 9 8
9 10 12 11 10 9 9 11 12 13 15 16 17 19 20 19 23 22 21 19 20 20 20 20 16 15 17 20 22 24 30 35 38 29 25 25 22 19 15 11 10 9 8
12 13 13 12 11 9 8 8 9 9 11 14 17 16 15 14 15 18 20 20 19 18 17 17 18 19 22 24 26 28 31 36 37 28 22 22 21 19 17 14 11 10 8
15 18 18 18 17 12 11 9 8 9 10 13 15 13 13 13 13 12 16 18 21 22 23 21 22 23 25 26 27 30 33 36 36 27 21 19 21 22 20 14 10 11 7
18 19 17 18 16 17 16 10 10 12 12 12 15 15 14 14 12 12 12 14 21 27 29 28 25 26 29 31 29 30 31 35 38 29 21 19 22 26 20 20 10 6 6
15 12 10 11 10 13 16 17 17 13 13 12 14 13 15 13 12 12 15 19 23 25 28 29 27 30 31 29 30 30 31 35 40 31 24 20 21 20 22 22 20 12 3
11 8 8 8 7 7 11 12 10 10 11 12 14 17 15 13 16 17 18 20 22 23 24 27 29 29 31 31 31 31 31 35 38 30 25 22 22 22 23 23 19 14 7
10 7 6 5 5 5 6 8 7 9 11 13 14 14 13 14 15 16 17 19 21 23 22 25 27 26 30 31 31 31 32 35 38 33 26 20 20 16 17 17 15 12 10
9 6 4 4 4 2 5 6 5 8 11 12 13 13 13 13 15 16 16 17 19 20 22 23 23 25 30 32 32 32 33 34 36 33 26 21 17 17 15 15 13 11 9
6 2 5 4 3 3 4 5 6 8 10 11 12 14 15 15 16 17 17 18 19 21 23 23 24 27 29 29 30 31 31 31 33 31 25 21 17 15 14 14 12 12 11
3 1 3 2 2 4 5 6 7 8 10 12 13 15 16 17 18 19 19 21 21 22 23 24 26 28 29 29 29 30 29 27 28 29 23 19 17 12 10 9 12 12 12
2 3 4 1 3 5 6 7 7 9 10 12 13 15 16 17 19 20 21 23 23 24 24 25 27 29 30 30 30 30 30 27 27 27 26 20 17 13 11 11 13 13 15
2 2 2 2 4 6 7 8 9 10 11 13 13 14 16 18 19 20 22 23 24 25 25 27 28 29 30 31 32 32 31 28 27 28 27 26 19 17 15 16 14 15 14
Wind_Direction
177 169 168 164 161 157 162 167 184 206 238 263 276 292 303 304 307 310 310 309 310 313 316 314 317 319 318 329 330 323 322 322 321 323 325 325 326 326 322 324 318 319 308
160 160 164 163 160 159 168 178 196 224 251 275 292 300 302 308 310 315 315 313 314 318 318 316 320 325 336 328 322 321 327 326 320 321 330 337 343 344 339 329 315 301 290
159 161 161 159 167 179 183 195 218 246 272 289 295 305 310 315 318 317 313 313 319 327 328 333 337 336 330 330 332 329 326 336 341 334 334 338 338 342 338 339 336 324 303
153 156 162 161 171 183 195 220 249 275 292 300 308 310 316 322 323 314 318 324 332 332 332 335 338 340 336 331 327 331 341 338 335 334 332 333 333 337 335 332 331 335 327
165 169 173 178 190 204 219 245 272 293 303 311 312 317 324 324 323 322 336 336 336 332 335 335 343 338 336 337 336 333 333 332 330 330 327 326 327 329 329 324 322 322 324
165 167 170 182 192 208 232 265 291 303 308 309 309 315 319 320 331 342 336 335 340 333 330 331 336 339 341 333 327 327 332 325 326 325 323 318 320 320 318 314 311 315 314
156 162 171 186 202 229 272 297 304 305 307 310 309 309 317 324 336 338 332 334 342 334 331 334 332 335 336 326 331 332 331 328 328 323 317 314 312 314 309 305 307 304 301
157 165 176 193 231 271 295 303 314 318 320 326 329 334 332 338 323 318 333 335 342 335 335 333 328 319 325 327 330 333 333 331 329 324 318 314 309 307 305 300 296 294 296
163 167 173 207 278 319 334 348 347 349 351 3 8 354 335 308 320 327 331 331 332 337 338 338 325 301 322 335 336 336 335 334 331 329 325 319 315 306 305 298 296 296 290
155 161 338 338 342 359 13 11 11 14 17 354 8 349 331 323 325 326 332 334 335 339 335 339 327 311 335 343 340 342 341 339 334 331 331 333 325 317 312 299 301 289 283
123 101 17 13 33 45 34 31 23 20 359 332 336 325 324 326 328 332 333 332 333 336 336 336 330 319 341 340 337 346 347 341 336 333 335 335 333 330 326 312 302 296 276
103 83 72 66 67 65 45 32 10 8 360 342 333 337 339 333 328 335 335 335 329 327 329 328 325 323 331 333 338 344 345 347 349 346 344 337 333 327 322 314 311 290 275
91 79 69 72 80 67 46 35 22 23 21 15 12 6 2 355 358 358 349 344 338 334 334 336 330 325 320 328 340 343 347 352 354 348 342 339 335 329 326 322 316 299 278
101 82 81 94 84 67 52 36 24 26 21 18 15 16 16 13 10 7 2 353 357 356 343 339 329 329 326 331 341 348 351 359 356 350 348 348 350 350 347 336 323 310 281
102 89 85 83 75 58 39 30 25 27 23 21 22 19 17 21 19 13 7 349 341 340 337 332 333 335 341 344 347 352 357 358 354 352 354 358 4 0 357 342 332 316 275
94 88 86 77 69 65 54 41 40 30 21 23 18 19 26 26 25 26 28 20 13 359 350 359 6 5 3 357 354 356 1 0 356 354 358 358 358 354 350 349 342 323 315
86 78 67 58 48 43 45 53 43 33 30 31 26 26 28 19 24 27 37 33 31 27 28 23 19 16 11 7 0 359 0 0 357 0 1 357 352 346 343 340 342 338 314
95 84 69 54 46 45 45 49 53 55 42 31 26 22 23 22 25 29 34 31 32 33 26 24 22 21 16 10 2 1 360 1 4 7 6 0 352 353 6 356 347 316 321
94 90 81 63 50 38 39 39 42 42 37 26 18 23 22 22 38 38 37 35 30 28 20 16 16 18 12 7 2 2 2 5 8 8 10 10 8 10 3 13 9 15 296
105 109 103 66 67 51 38 27 35 33 25 19 19 23 23 33 44 43 40 35 31 25 18 8 11 12 4 4 6 3 5 9 8 8 9 10 14 18 16 18 22 27 63
111 94 102 80 68 63 31 22 27 26 27 23 26 28 35 42 44 39 36 33 26 21 10 1 3 5 3 7 7 6 7 9 7 10 12 11 12 17 22 24 30 41 52
123 109 136 92 69 42 25 24 25 24 29 32 34 39 39 42 40 33 29 29 23 18 12 8 11 9 9 9 8 7 6 7 7 8 13 17 20 27 23 22 25 26 43
138 121 124 123 58 31 10 19 29 31 35 37 36 41 38 39 39 35 32 29 23 20 20 18 17 16 17 16 14 12 8 7 8 7 7 20 30 31 32 29 15 9 14
166 145 154 123 33 29 35 43 46 49 47 46 46 43 42 42 42 38 36 35 30 28 25 22 23 22 22 20 20 17 16 11 10 13 13 27 28 31 35 28 12 1 16
146 168 187 144 45 44 43 51 55 58 53 53 52 46 45 48 45 40 40 39 35 32 30 27 25 25 26 26 26 22 20 16 18 19 20 27 31 36 37 41 41 36 53
124 150 151 111 67 65 62 64 64 64 56 57 52 46 44 46 45 41 38 38 37 33 30 28 27 27 25 27 28 27 24 21 20 24 26 28 34 44 61 62 72 62 61
Height
1480 1485 1491 1497 1500 1502 1509 1513 1518 1518 1518 1517 1520 1517 1515 1512 1506 1501 1497 1496 1495 1490 1483 1481 1476 1472 1470 1465 1466 1465 1462 1459 1453 1447 1446 1441 1435 1430 1427 1424 1422 1421 1419
1480 1491 1498 1497 1499 1504 1510 1513 1516 1519 1517 1516 1516 1514 1511 1506 1500 1495 1494 1493 1490 1484 1480 1475 1471 1468 1467 1464 1463 1462 1457 1455 1452 1445 1441 1436 1433 1429 1423 1419 1417 1416 1414
1488 1492 1498 1501 1506 1508 1511 1515 1516 1515 1513 1512 1513 1508 1506 1498 1496 1493 1490 1489 1484 1480 1477 1471 1466 1466 1463 1461 1459 1458 1454 1451 1448 1442 1436 1433 1429 1425 1420 1417 1413 1410 1409
1491 1497 1502 1505 1506 1509 1509 1512 1511 1511 1511 1510 1505 1504 1498 1494 1489 1491 1488 1483 1480 1477 1473 1467 1463 1462 1462 1461 1457 1454 1451 1447 1443 1437 1432 1427 1424 1421 1418 1414 1408 1407 1403
1493 1496 1501 1502 1504 1506 1508 1509 1509 1509 1507 1503 1502 1498 1492 1489 1489 1487 1483 1479 1478 1474 1468 1465 1464 1461 1461 1459 1456 1452 1448 1444 1438 1432 1427 1423 1419 1416 1413 1411 1407 1403 1400
1491 1493 1498 1502 1504 1506 1506 1506 1504 1502 1501 1498 1495 1491 1489 1489 1487 1483 1480 1477 1473 1469 1462 1462 1459 1458 1458 1457 1454 1451 1446 1440 1434 1429 1423 1418 1415 1412 1409 1406 1403 1400 1395
1490 1493 1496 1499 1501 1501 1502 1500 1498 1498 1495 1492 1492 1491 1488 1485 1482 1479 1477 1474 1468 1463 1462 1460 1458 1457 1455 1453 1450 1446 1442 1437 1432 1425 1419 1415 1410 1408 1404 1400 1398 1395 1392
1495 1497 1497 1497 1498 1497 1497 1496 1496 1493 1492 1490 1489 1487 1482 1482 1480 1476 1472 1469 1465 1464 1460 1458 1456 1455 1453 1449 1444 1440 1436 1431 1426 1420 1414 1408 1404 1401 1399 1395 1392 1389 1386
1494 1495 1496 1495 1495 1493 1490 1490 1491 1489 1486 1487 1484 1483 1480 1480 1475 1472 1468 1465 1463 1461 1459 1457 1454 1453 1451 1446 1441 1436 1431 1426 1419 1412 1407 1402 1398 1395 1393 1389 1385 1383 1380
1492 1491 1492 1490 1489 1489 1489 1487 1488 1486 1486 1486 1485 1481 1478 1475 1470 1470 1464 1462 1460 1458 1457 1455 1453 1451 1447 1443 1439 1434 1427 1420 1412 1406 1400 1395 1392 1388 1386 1383 1380 1377 1377
1492 1490 1491 1490 1489 1489 1488 1488 1488 1487 1486 1486 1483 1480 1476 1472 1470 1467 1464 1460 1457 1455 1454 1453 1450 1447 1444 1442 1438 1432 1426 1418 1410 1403 1396 1391 1386 1382 1379 1377 1375 1374 1373
1490 1491 1491 1490 1489 1489 1489 1489 1487 1484 1482 1481 1479 1476 1475 1473 1470 1467 1464 1461 1457 1454 1452 1449 1447 1445 1442 1439 1435 1430 1424 1416 1406 1399 1392 1387 1381 1377 1374 1372 1371 1369 1368
1491 1492 1491 1490 1489 1489 1488 1486 1484 1481 1481 1480 1478 1476 1474 1471 1469 1466 1463 1460 1457 1453 1450 1447 1444 1442 1440 1436 1432 1427 1420 1412 1403 1395 1388 1382 1377 1372 1369 1367 1366 1365 1363
1492 1491 1490 1490 1490 1488 1487 1486 1485 1482 1483 1481 1479 1477 1474 1471 1467 1464 1461 1458 1456 1453 1449 1446 1443 1440 1437 1433 1428 1424 1417 1409 1401 1393 1386 1380 1374 1369 1366 1365 1363 1362 1361
1491 1491 1491 1491 1490 1489 1489 1487 1486 1485 1485 1483 1481 1478 1475 1472 1469 1466 1462 1458 1454 1451 1448 1444 1440 1437 1433 1428 1425 1421 1414 1407 1399 1391 1385 1379 1374 1370 1366 1364 1362 1360 1359
1493 1493 1494 1493 1492 1492 1492 1490 1489 1489 1487 1486 1482 1479 1477 1475 1473 1469 1464 1460 1455 1450 1446 1442 1438 1435 1430 1426 1422 1417 1411 1405 1397 1389 1383 1379 1374 1369 1365 1363 1360 1358 1357
1496 1497 1496 1495 1495 1494 1493 1493 1492 1490 1489 1487 1484 1480 1478 1476 1474 1471 1467 1462 1457 1452 1447 1443 1439 1435 1431 1427 1422 1417 1409 1404 1396 1387 1382 1378 1373 1369 1364 1361 1358 1357 1356
1496 1497 1499 1499 1499 1498 1496 1495 1493 1491 1490 1488 1485 1482 1480 1477 1473 1471 1468 1463 1458 1453 1450 1445 1441 1436 1431 1427 1423 1416 1410 1403 1394 1385 1380 1377 1372 1367 1362 1358 1355 1355 1355
1499 1500 1502 1502 1501 1499 1497 1495 1494 1493 1492 1489 1487 1484 1480 1478 1474 1471 1467 1463 1459 1455 1452 1448 1443 1437 1433 1428 1423 1416 1409 1401 1393 1385 1380 1376 1372 1367 1364 1358 1355 1353 1353
1501 1502 1502 1502 1500 1500 1500 1499 1498 1496 1494 1492 1488 1484 1481 1478 1473 1471 1468 1465 1461 1457 1453 1449 1444 1439 1435 1429 1422 1415 1408 1400 1393 1386 1380 1376 1372 1368 1365 1361 1357 1354 1353
1503 1503 1503 1502 1502 1502 1502 1501 1499 1498 1496 1492 1490 1486 1483 1478 1475 1473 1470 1466 1463 1459 1455 1451 1446 1442 1437 1429 1422 1416 1408 1401 1394 1387 1381 1377 1374 1371 1369 1365 1362 1361 1359
1505 1505 1505 1504 1504 1504 1503 1501 1500 1498 1495 1492 1491 1488 1484 1481 1477 1475 1472 1468 1465 1461 1457 1452 1448 1444 1437 1430 1423 1416 1409 1402 1396 1389 1384 1379 1376 1373 1371 1369 1366 1364 1363
1507 1506 1506 1505 1505 1505 1503 1502 1500 1498 1495 1493 1492 1488 1485 1482 1479 1476 1473 1470 1467 1463 1459 1454 1450 1445 1439 1433 1426 1418 1411 1405 1400 1393 1387 1382 1379 1376 1374 1372 1370 1368 1366
1508 1507 1506 1506 1506 1505 1503 1501 1499 1497 1496 1494 1492 1490 1487 1484 1481 1479 1476 1472 1469 1465 1461 1457 1452 1446 1440 1435 1428 1423 1416 1410 1405 1398 1391 1385 1381 1378 1376 1375 1373 1370 1368
1509 1508 1507 1507 1506 1505 1503 1502 1500 1498 1497 1496 1494 1492 1490 1487 1484 1482 1479 1475 1471 1467 1464 1459 1454 1449 1443 1438 1431 1426 1420 1415 1408 1402 1395 1389 1385 1381 1378 1376 1375 1374 1372
1510 1509 1508 1507 1506 1504 1503 1502 1501 1500 1500 1497 1496 1494 1492 1489 1487 1485 1481 1478 1474 1470 1466 1462 1457 1451 1447 1440 1434 1429 1423 1417 1411 1406 1399 1392 1388 1385 1382 1381 1379 1379 1378